Theta_e
333 340 344 344 343 342 342 341 340 340 340 340 340 341 341 341 341 342 344 346 344 344 345 346 345 344 343 343 343 344 346 346 346 346 347 343 341 341 343 343 343 337 346
336 339 341 342 341 340 339 337 336 336 336 336 335 336 337 336 337 338 340 342 345 345 345 345 344 345 346 345 344 345 345 346 344 345 345 344 342 339 339 342 343 342 342
335 336 336 339 338 336 335 334 333 333 333 332 331 332 331 331 331 332 334 336 338 340 340 340 339 339 341 343 344 344 345 344 344 344 343 341 344 339 337 342 344 341 341
332 333 332 335 334 334 332 330 330 330 330 330 329 328 328 329 329 329 330 330 332 335 335 336 336 335 335 336 338 338 337 336 337 341 341 341 342 341 338 338 343 343 344
329 329 329 332 332 331 329 328 327 328 328 327 326 326 326 327 328 327 326 327 329 330 330 330 330 329 330 331 331 331 331 333 332 337 342 341 341 342 340 341 343 346 346
328 327 328 329 329 328 326 326 327 326 326 325 324 324 323 324 324 324 323 324 324 324 325 325 324 324 324 324 325 325 326 328 331 335 340 342 341 342 343 343 344 346 346
327 326 325 327 326 326 325 325 324 323 323 323 322 321 321 321 321 320 321 321 321 321 322 322 320 319 318 319 319 319 320 319 325 336 338 340 337 342 343 344 343 346 346
326 326 324 323 325 324 323 323 321 321 320 320 318 318 318 317 317 318 318 318 318 318 319 318 317 316 315 315 315 315 314 314 321 332 337 333 331 339 343 342 342 343 344
325 324 323 321 320 322 321 319 318 317 316 315 314 313 312 312 312 312 313 314 315 315 315 314 313 312 312 312 312 312 311 311 312 323 330 325 323 332 336 338 340 341 342
322 321 320 319 318 318 316 315 314 313 311 310 308 307 307 306 307 307 308 309 310 310 310 310 310 309 308 307 308 309 309 311 310 312 320 316 320 326 330 332 333 334 338
318 318 317 315 314 315 314 310 309 309 307 305 304 302 304 307 306 306 303 304 305 305 306 307 307 306 306 308 306 306 308 309 309 309 311 312 316 320 323 326 328 329 331
314 315 314 312 311 312 310 309 308 305 306 305 305 305 306 305 303 302 302 299 300 301 302 304 304 305 307 307 307 308 307 308 308 308 309 309 312 316 318 320 323 325 327
315 314 312 310 309 309 306 307 306 306 306 305 305 305 305 305 305 305 305 305 305 304 304 305 305 305 305 305 305 306 306 306 307 307 307 306 309 313 315 316 317 319 321
313 313 312 309 307 307 306 305 306 305 305 305 304 303 305 304 304 304 303 303 304 304 303 304 304 304 304 304 304 304 305 305 305 306 305 304 307 311 313 315 315 316 317
311 311 310 309 306 305 305 305 305 304 304 304 303 303 303 303 303 302 302 302 302 302 302 302 302 302 302 303 303 303 303 304 304 305 305 303 307 311 313 315 317 317 319
310 309 309 306 306 305 304 304 304 304 303 303 302 302 301 302 302 301 301 301 301 301 301 300 300 300 300 301 301 302 302 303 304 304 304 306 307 311 314 315 315 317 318
308 309 309 306 305 304 304 303 303 303 302 302 302 301 301 301 300 299 300 300 300 300 300 300 299 300 300 301 300 301 302 302 303 303 304 305 306 306 308 310 310 310 312
306 305 307 305 304 303 303 302 302 301 301 301 301 300 300 299 299 299 299 299 299 299 299 298 298 298 299 299 299 301 301 302 302 302 303 306 307 305 304 303 303 306 307
301 303 305 304 303 303 302 301 301 300 300 300 300 299 299 298 298 298 298 298 298 297 297 297 297 297 297 298 299 298 300 301 302 302 304 305 303 303 304 301 300 300 303
299 301 304 304 302 302 301 300 300 299 299 299 298 298 297 297 297 297 297 297 297 296 296 296 296 297 297 297 296 297 299 301 302 302 303 302 301 301 301 301 302 301 299
298 300 302 301 301 300 298 297 297 297 298 297 297 297 296 296 296 296 296 296 296 295 295 295 295 294 295 298 295 298 299 300 301 302 302 301 299 300 300 299 300 300 300
297 299 300 300 299 299 299 299 299 298 298 298 297 296 295 295 295 294 294 294 294 293 294 294 294 293 295 296 294 295 294 296 299 299 300 299 299 299 298 298 298 298 299
296 298 298 298 298 298 298 297 295 295 294 293 293 294 294 293 293 293 293 293 293 293 292 293 293 293 292 295 295 293 293 293 296 298 298 299 297 298 298 297 297 297 297
296 297 297 297 296 296 296 294 294 294 293 295 295 294 293 293 292 292 292 292 292 292 291 292 293 292 292 291 294 294 294 293 292 292 296 298 298 297 297 297 297 297 297
295 295 296 295 295 294 294 294 294 293 293 294 293 291 292 292 291 291 291 291 290 291 291 291 291 291 290 289 290 291 291 292 292 290 293 295 297 298 298 296 296 298 296
294 294 295 293 293 293 293 292 292 292 292 291 291 290 290 291 290 290 290 290 290 290 290 290 289 288 288 287 287 288 287 288 290 289 288 290 288 293 295 296 296 297 297
Wind_Speed
8 9 8 13 13 12 15 15 13 12 13 14 14 13 13 14 14 13 14 14 8 7 7 8 7 5 4 3 3 4 5 2 6 6 2 1 0 2 3 2 4 3 6
11 9 9 12 13 13 15 14 11 12 12 12 12 13 13 14 14 13 13 14 14 12 13 13 12 12 11 7 4 4 5 4 5 2 3 5 3 1 1 1 3 6 3
12 11 11 12 13 14 14 12 11 11 12 12 12 13 13 13 14 14 14 14 13 14 13 12 12 12 12 13 11 9 9 8 6 5 6 6 3 3 1 1 2 2 2
11 10 10 11 13 13 11 10 11 11 12 13 13 13 13 13 13 14 14 13 13 13 12 12 12 12 11 11 11 10 10 9 9 7 7 7 6 7 1 1 2 3 5
11 11 10 12 12 12 11 11 11 12 12 12 13 13 13 13 14 14 13 13 13 13 13 11 11 11 11 11 11 11 11 10 9 8 6 4 5 8 2 3 3 6 6
12 12 10 12 12 12 11 12 12 12 12 12 12 12 12 13 13 13 12 12 12 12 12 11 11 11 11 11 12 11 11 10 8 3 6 4 3 5 4 6 6 6 5
12 13 11 11 12 12 12 12 12 12 12 12 11 11 12 12 12 12 11 11 11 10 10 11 11 10 10 10 11 11 10 12 8 5 4 2 6 7 5 7 9 9 8
11 12 12 8 9 11 11 12 11 11 11 11 11 11 12 12 12 11 11 11 10 10 10 10 10 10 10 10 10 11 12 12 9 4 3 5 9 9 4 4 5 9 7
11 11 11 11 10 11 11 11 10 10 10 10 10 11 11 11 11 11 11 10 10 9 9 9 8 8 8 8 9 10 11 11 10 3 3 5 11 7 7 8 8 2 5
10 10 10 10 10 10 9 9 10 10 10 10 9 9 9 9 9 9 7 9 9 8 8 8 8 8 7 5 7 9 11 12 7 4 3 6 10 8 6 5 4 5 6
9 9 9 8 7 8 9 8 10 10 9 9 7 3 3 4 4 5 8 7 8 8 7 8 9 9 9 9 4 5 10 3 5 3 2 8 9 8 7 6 6 3 4
12 11 9 9 8 8 6 8 6 7 5 4 3 3 3 4 4 3 3 1 0 4 3 6 6 9 8 6 4 5 3 5 5 4 4 8 8 8 7 6 6 5 6
13 10 11 10 9 8 6 5 3 3 3 3 3 2 2 1 2 2 2 3 4 4 4 6 6 5 7 6 6 6 5 5 3 3 6 7 8 7 6 5 4 4 4
13 13 12 11 10 9 5 5 4 3 3 3 3 1 0 0 2 2 3 4 4 4 6 5 4 6 6 7 6 7 7 5 4 3 4 6 6 6 5 4 2 3 3
13 13 13 12 10 9 7 5 4 4 4 3 3 2 1 0 1 2 3 3 4 5 5 5 6 6 6 7 6 6 7 7 6 4 2 6 4 4 2 1 3 4 5
12 13 13 12 11 10 8 7 5 4 4 3 2 2 1 1 2 2 3 3 4 4 5 6 6 7 7 6 7 6 6 6 6 5 4 5 2 4 6 7 6 7 8
12 11 12 13 12 11 10 8 6 5 4 4 3 3 2 2 2 3 3 3 3 4 6 5 6 6 7 6 7 6 6 6 5 5 4 3 5 6 7 9 9 8 8
10 13 12 11 12 11 10 8 6 5 5 4 3 3 3 2 3 4 3 3 3 4 4 5 6 6 6 6 6 6 5 5 5 5 5 4 3 5 7 8 8 9 8
10 11 13 13 13 12 9 7 6 6 5 4 3 3 4 3 3 4 3 3 4 4 4 4 5 6 6 6 6 6 5 5 4 5 4 3 3 1 1 6 4 5 8
9 11 13 12 13 12 8 7 5 5 4 4 4 3 3 3 4 4 3 3 3 4 5 4 6 6 7 6 7 7 5 4 4 4 5 4 3 3 2 3 2 4 4
9 12 13 14 14 10 9 8 7 6 6 5 3 3 4 3 4 4 4 4 4 5 5 6 5 7 6 4 6 5 3 4 6 4 4 5 4 3 2 2 1 2 1
8 10 13 14 14 11 8 7 4 6 4 4 4 4 5 4 4 4 4 4 5 5 6 5 5 5 5 3 4 4 3 4 5 5 4 4 4 2 2 2 2 2 2
10 11 12 13 13 11 9 6 4 3 2 4 5 5 5 5 5 5 5 5 5 5 5 4 4 5 5 3 3 4 3 2 4 5 6 5 5 2 1 3 2 1 2
10 10 11 11 12 10 9 8 9 6 6 5 2 3 3 5 6 5 6 5 6 4 6 4 4 4 3 5 2 3 4 3 3 3 3 4 3 2 1 2 1 0 2
10 10 10 11 10 9 8 7 6 6 4 3 3 5 6 5 5 6 6 6 6 4 5 4 4 4 3 4 4 3 3 3 3 3 1 4 3 1 2 2 1 0 2
10 10 9 10 9 8 7 7 6 6 6 5 5 5 5 4 4 6 6 6 6 5 5 5 3 4 5 4 3 3 4 4 2 2 3 2 5 1 0 1 1 1 1
Wind_Direction
140 122 132 119 111 105 92 88 83 80 76 71 69 70 67 66 63 56 49 49 64 76 61 57 51 24 348 306 286 280 262 247 214 197 148 118 20 349 44 34 293 226 90
140 121 111 107 106 103 92 90 94 89 88 86 83 82 77 69 66 64 55 48 51 67 64 58 51 38 28 9 356 337 293 271 226 239 187 207 187 230 116 81 308 25 53
116 114 105 102 105 93 96 103 106 102 97 91 83 79 75 70 67 65 63 57 53 52 51 49 44 35 32 27 33 26 17 2 321 244 245 255 231 150 16 112 338 359 295
124 118 108 101 101 101 103 107 102 101 93 89 81 76 73 70 67 63 58 56 55 55 54 52 49 38 31 31 32 23 17 1 356 333 258 268 277 111 327 30 288 269 257
137 108 104 102 107 110 117 109 104 99 92 85 81 77 73 71 68 62 57 55 53 53 49 45 40 36 29 21 21 18 8 355 344 312 276 290 325 111 32 318 255 239 245
138 121 118 120 127 127 118 112 106 102 97 93 87 83 77 74 71 66 61 57 51 48 45 43 38 31 23 19 12 7 1 346 319 296 328 293 295 336 323 309 300 305 253
147 126 136 134 131 130 123 116 112 107 101 95 88 83 77 72 68 64 59 54 49 46 44 40 33 27 21 14 6 360 356 344 307 251 218 182 18 7 280 284 291 272 255
147 143 134 113 123 124 117 113 108 104 100 98 95 88 82 76 70 64 58 52 44 41 39 36 30 18 13 8 2 357 351 339 297 290 326 69 13 357 11 285 279 258 269
146 146 144 140 115 96 102 102 102 100 95 91 88 84 80 75 71 66 56 51 43 39 34 27 20 14 3 358 358 351 338 321 301 338 298 62 353 334 9 25 33 20 280
156 155 151 144 155 141 127 96 106 106 99 92 87 87 95 96 84 65 56 46 41 30 21 14 5 354 343 342 348 342 324 300 288 299 294 33 347 343 357 360 360 343 13
170 173 165 161 158 150 138 116 115 112 111 117 115 107 202 55 49 70 60 39 33 17 11 2 352 338 318 267 231 311 304 321 314 309 306 26 346 341 347 349 356 345 324
185 181 176 173 169 163 149 163 155 150 163 138 120 85 69 56 51 17 103 97 198 7 296 345 330 311 281 333 304 244 310 329 290 306 60 25 341 334 332 335 338 347 357
192 187 187 180 173 177 166 170 175 166 155 136 114 92 79 59 22 18 351 356 349 7 346 337 333 338 338 327 323 311 315 293 295 282 75 31 338 328 325 323 322 329 348
196 194 189 186 182 186 172 192 174 179 169 171 125 121 15 42 14 2 354 341 337 345 333 337 331 326 315 310 304 304 300 296 291 296 105 64 339 325 317 318 336 10 24
202 195 190 189 189 185 191 182 181 172 197 143 166 131 328 355 336 331 341 323 328 331 329 327 322 320 311 302 298 291 291 291 284 278 295 83 349 331 330 50 64 62 63
202 202 191 193 196 186 191 185 182 178 155 186 173 142 162 298 310 311 311 320 315 332 332 324 322 311 307 302 295 285 281 281 274 280 268 119 36 16 53 61 60 61 60
203 206 196 190 194 190 193 185 182 179 179 182 177 178 200 269 302 309 299 307 323 325 308 305 307 304 299 294 289 279 274 265 262 257 255 220 137 69 64 60 49 48 51
207 201 196 189 189 190 190 181 183 171 193 180 187 192 194 233 281 290 295 296 333 301 312 308 312 307 302 300 297 295 284 263 255 256 234 217 198 149 109 63 47 43 38
211 217 197 190 188 188 183 178 180 179 195 186 191 205 195 236 257 273 283 300 310 301 301 309 308 303 301 296 296 292 279 269 242 224 194 186 93 194 80 109 87 57 30
214 213 205 186 184 178 169 174 177 178 198 195 208 216 215 234 256 268 274 277 291 294 290 296 302 299 294 290 298 290 270 255 229 201 185 168 142 138 75 35 346 111 53
212 202 195 183 180 174 174 178 183 197 196 201 212 211 235 233 242 259 268 275 273 281 296 297 295 293 291 297 290 222 226 237 218 189 187 175 168 156 75 28 2 0 39
188 193 182 182 176 181 180 183 191 197 200 219 188 209 224 224 232 259 263 278 280 285 278 280 287 297 283 280 299 289 228 188 212 203 190 181 171 177 87 30 17 360 354
174 177 178 176 175 181 178 161 161 139 183 201 214 228 216 230 230 243 261 262 270 268 273 278 275 285 294 279 280 305 273 267 155 170 209 200 189 175 79 17 347 46 38
158 158 166 168 174 174 171 182 192 206 218 214 238 223 224 224 248 246 249 254 257 263 265 264 258 282 283 277 282 254 294 330 306 182 194 204 214 239 142 350 324 76 64
153 157 160 164 169 169 179 196 201 221 236 253 231 247 246 244 237 251 244 243 248 249 255 262 269 268 292 293 287 339 302 280 266 284 230 157 186 117 133 2 5 270 61
160 161 164 167 173 173 185 196 216 228 241 240 233 242 244 242 235 228 235 240 243 248 245 248 241 260 258 250 261 261 273 308 344 312 283 327 328 297 288 4 260 166 99